Radiation Dose at Monitoring Post of Fukushima Daini Nuclear Power Station
Date,Time,MP-1(microSv/h),MP-2(microSv/h),MP-3(microSv/h),MP-4(microSv/h),MP-5(microSv/h),MP-6(microSv/h),MP-7(microSv/h),Wind Direction,Wind Velocity(m/s),Rain
2016/04/24,00:00,0.449,0.262,0.469,0.415,0.389,0.212,0.184,north,3.1,No
2016/04/24,00:10,0.450,0.260,0.468,0.418,0.393,0.212,0.184,north,3.8,Yes
2016/04/24,00:20,0.452,0.261,0.471,0.415,0.389,0.212,0.185,north,5.5,No
2016/04/24,00:30,0.451,0.262,0.469,0.421,0.393,0.213,0.185,north,5.0,Yes
2016/04/24,00:40,0.451,0.262,0.473,0.417,0.391,0.213,0.184,north,4.6,Yes
2016/04/24,00:50,0.452,0.262,0.471,0.420,0.396,0.214,0.188,north,4.5,Yes
2016/04/24,01:00,0.453,0.266,0.474,0.417,0.393,0.215,0.188,north,4.2,Yes
2016/04/24,01:10,0.454,0.264,0.473,0.421,0.395,0.215,0.187,north,5.5,Yes
2016/04/24,01:20,0.452,0.264,0.476,0.418,0.397,0.217,0.187,north,5.8,Yes
2016/04/24,01:30,0.457,0.265,0.472,0.421,0.395,0.217,0.188,north,5.0,Yes
2016/04/24,01:40,0.452,0.264,0.474,0.419,0.395,0.218,0.188,north-northeast,5.3,Yes
2016/04/24,01:50,0.456,0.266,0.471,0.420,0.392,0.216,0.187,north,4.6,Yes
2016/04/24,02:00,0.453,0.264,0.477,0.420,0.395,0.217,0.188,north,3.9,Yes
2016/04/24,02:10,0.455,0.266,0.471,0.419,0.391,0.217,0.189,north,3.7,Yes
2016/04/24,02:20,0.454,0.265,0.475,0.421,0.395,0.217,0.187,north,4.2,Yes
2016/04/24,02:30,0.456,0.266,0.471,0.416,0.393,0.216,0.188,north-northeast,5.2,Yes
2016/04/24,02:40,0.453,0.266,0.475,0.419,0.394,0.217,0.187,north-northeast,4.9,Yes
2016/04/24,02:50,0.455,0.265,0.472,0.417,0.394,0.216,0.188,north-northeast,5.3,Yes
2016/04/24,03:00,-,-,-,-,-,-,-,-,-,-
2016/04/24,03:10,-,-,-,-,-,-,-,-,-,-
2016/04/24,03:20,0.456,0.266,0.471,0.418,0.391,0.216,0.187,north,3.5,Yes
2016/04/24,03:30,0.451,0.265,0.473,0.418,0.392,0.216,0.186,north-northeast,3.3,Yes
2016/04/24,03:40,0.453,0.266,0.468,0.415,0.390,0.217,0.187,north-northeast,2.6,Yes
2016/04/24,03:50,0.450,0.264,0.470,0.417,0.391,0.217,0.187,north,2.5,Yes
2016/04/24,04:00,0.451,0.263,0.466,0.412,0.391,0.216,0.187,north-northeast,2.2,Yes
2016/04/24,04:10,0.449,0.264,0.467,0.415,0.390,0.216,0.186,north,4.5,Yes
2016/04/24,04:20,0.449,0.263,0.468,0.412,0.391,0.217,0.188,north,5.0,Yes
2016/04/24,04:30,0.451,0.264,0.466,0.414,0.392,0.215,0.187,north,6.2,Yes
2016/04/24,04:40,0.447,0.265,0.470,0.414,0.390,0.216,0.186,north,7.5,Yes
2016/04/24,04:50,0.450,0.262,0.465,0.412,0.391,0.215,0.186,north,8.1,Yes
2016/04/24,05:00,0.447,0.263,0.466,0.414,0.390,0.214,0.184,north,8.4,Yes
2016/04/24,05:10,0.449,0.262,0.466,0.411,0.391,0.214,0.185,north,8.0,Yes
2016/04/24,05:20,0.447,0.261,0.463,0.411,0.390,0.212,0.183,north,7.4,Yes
2016/04/24,05:30,0.448,0.262,0.464,0.410,0.388,0.213,0.183,north,8.0,Yes
2016/04/24,05:40,0.447,0.259,0.461,0.409,0.388,0.211,0.182,north,8.0,Yes
2016/04/24,05:50,0.444,0.260,0.464,0.410,0.387,0.211,0.181,north-northwest,8.3,No
2016/04/24,06:00,0.446,0.260,0.461,0.406,0.389,0.210,0.181,north-northwest,7.7,No
2016/04/24,06:10,0.444,0.259,0.462,0.410,0.386,0.210,0.181,north-northwest,7.7,No
2016/04/24,06:20,0.444,0.259,0.462,0.409,0.386,0.210,0.180,north-northwest,7.8,No
2016/04/24,06:30,0.444,0.257,0.460,0.407,0.387,0.210,0.181,north-northwest,8.2,No
2016/04/24,06:40,0.443,0.257,0.463,0.409,0.385,0.208,0.180,north-northwest,7.8,No
2016/04/24,06:50,0.446,0.256,0.459,0.406,0.388,0.208,0.180,north-northwest,8.2,No
2016/04/24,07:00,0.444,0.257,0.463,0.409,0.384,0.208,0.180,north-northwest,8.6,No
2016/04/24,07:10,0.444,0.258,0.459,0.406,0.387,0.208,0.179,north-northwest,8.9,Yes
2016/04/24,07:20,0.443,0.255,0.462,0.409,0.386,0.208,0.179,north-northwest,9.2,Yes
2016/04/24,07:30,0.444,0.258,0.462,0.408,0.385,0.209,0.179,north-northwest,9.2,Yes
2016/04/24,07:40,0.443,0.256,0.462,0.409,0.388,0.207,0.181,north-northwest,9.1,Yes
2016/04/24,07:50,0.445,0.258,0.461,0.408,0.385,0.208,0.178,north-northwest,8.6,Yes
2016/04/24,08:00,0.446,0.257,0.460,0.407,0.386,0.208,0.180,north,7.9,No
2016/04/24,08:10,0.445,0.257,0.462,0.410,0.387,0.208,0.179,north,7.6,Yes
2016/04/24,08:20,0.447,0.257,0.459,0.405,0.388,0.208,0.179,north,8.1,Yes
2016/04/24,08:30,0.443,0.257,0.462,0.408,0.385,0.208,0.178,north,8.9,No
2016/04/24,08:40,0.446,0.258,0.460,0.406,0.388,0.208,0.180,north,8.7,No
2016/04/24,08:50,0.443,0.257,0.463,0.408,0.386,0.208,0.180,north,7.2,No
2016/04/24,09:00,0.448,0.258,0.458,0.407,0.386,0.208,0.180,north,6.2,No
2016/04/24,09:10,0.443,0.257,0.464,0.407,0.387,0.208,0.179,north,5.8,No
2016/04/24,09:20,0.447,0.258,0.459,0.405,0.387,0.207,0.178,north,4.3,No
2016/04/24,09:30,0.443,0.255,0.463,0.409,0.386,0.207,0.179,north,7.3,No
2016/04/24,09:40,0.446,0.257,0.460,0.404,0.388,0.208,0.180,north-northeast,8.2,No
2016/04/24,09:50,0.444,0.257,0.463,0.408,0.384,0.209,0.180,north-northeast,8.7,No
2016/04/24,10:00,0.444,0.255,0.458,0.407,0.390,0.208,0.179,north-northeast,8.0,No
2016/04/24,10:10,0.444,0.258,0.464,0.405,0.384,0.207,0.181,north-northeast,8.1,No
2016/04/24,10:20,0.442,0.256,0.461,0.406,0.387,0.208,0.179,north-northeast,7.3,No
2016/04/24,10:30,0.445,0.258,0.461,0.408,0.387,0.208,0.180,northeast,7.4,No
2016/04/24,10:40,0.442,0.256,0.464,0.404,0.384,0.208,0.180,northeast,6.3,No
2016/04/24,10:50,0.447,0.258,0.457,0.408,0.389,0.209,0.180,northeast,6.7,No
2016/04/24,11:00,0.446,0.257,0.463,0.411,0.387,0.207,0.181,northeast,5.3,No
2016/04/24,11:10,0.444,0.258,0.463,0.405,0.386,0.209,0.180,east-northeast,5.3,No
2016/04/24,11:20,0.449,0.258,0.457,0.408,0.389,0.208,0.181,northeast,5.6,No
2016/04/24,11:30,0.445,0.256,0.462,0.411,0.383,0.209,0.181,east-northeast,6.0,No
2016/04/24,11:40,0.443,0.260,0.464,0.407,0.392,0.209,0.180,northeast,8.1,No
2016/04/24,11:50,0.448,0.257,0.458,0.409,0.387,0.208,0.182,northeast,6.9,No
2016/04/24,12:00,0.445,0.259,0.463,0.413,0.386,0.210,0.181,northeast,7.8,No
2016/04/24,12:10,0.447,0.259,0.464,0.408,0.390,0.209,0.181,northeast,8.5,No
2016/04/24,12:20,0.448,0.258,0.461,0.409,0.387,0.208,0.182,northeast,7.4,No
2016/04/24,12:30,0.445,0.259,0.463,0.413,0.391,0.210,0.182,north-northeast,4.9,No
2016/04/24,12:40,0.451,0.256,0.466,0.409,0.387,0.210,0.183,northeast,4.1,No
2016/04/24,12:50,0.444,0.260,0.461,0.407,0.385,0.209,0.181,northeast,3.1,No
2016/04/24,13:00,0.450,0.258,0.463,0.412,0.391,0.210,0.182,east-northeast,3.6,No
2016/04/24,13:10,0.446,0.257,0.467,0.411,0.388,0.209,0.182,east-northeast,3.0,No
2016/04/24,13:20,0.447,0.259,0.463,0.409,0.387,0.209,0.181,northeast,2.3,No
2016/04/24,13:30,0.450,0.256,0.461,0.412,0.392,0.210,0.183,east,3.0,No
2016/04/24,13:40,0.445,0.259,0.468,0.413,0.388,0.211,0.182,east,2.8,No
2016/04/24,13:50,0.448,0.258,0.465,0.409,0.387,0.210,0.182,east,3.3,No
2016/04/24,14:00,0.448,0.259,0.462,0.413,0.393,0.209,0.182,east,3.2,No
2016/04/24,14:10,0.448,0.260,0.468,0.413,0.388,0.210,0.181,east-southeast,0.8,No
2016/04/24,14:20,0.449,0.258,0.464,0.411,0.388,0.211,0.182,southeast,1.4,No
2016/04/24,14:30,0.445,0.259,0.464,0.416,0.391,0.210,0.182,south-southeast,1.1,No
2016/04/24,14:40,0.450,0.259,0.469,0.413,0.389,0.210,0.181,south,1.1,No
2016/04/24,14:50,0.445,0.258,0.465,0.413,0.388,0.209,0.182,south-southeast,1.1,No
2016/04/24,15:00,0.449,0.259,0.465,0.414,0.391,0.210,0.182,-,CALM,No
2016/04/24,15:10,0.447,0.259,0.467,0.412,0.389,0.211,0.183,-,CALM,No
2016/04/24,15:20,0.447,0.260,0.463,0.416,0.391,0.209,0.182,-,CALM,No
2016/04/24,15:30,0.450,0.259,0.469,0.410,0.392,0.210,0.183,south-southeast,1.4,No
2016/04/24,15:40,0.446,0.261,0.465,0.415,0.389,0.211,0.182,south,2.4,No
2016/04/24,15:50,0.449,0.259,0.468,0.412,0.394,0.210,0.181,south-southeast,3.2,No
2016/04/24,16:00,0.448,0.258,0.467,0.416,0.389,0.210,0.182,south,1.6,No
2016/04/24,16:10,0.450,0.259,0.466,0.413,0.392,0.209,0.183,south,1.9,No
2016/04/24,16:20,0.450,0.259,0.470,0.417,0.391,0.211,0.182,south,3.4,No
2016/04/24,16:30,0.447,0.260,0.467,0.413,0.391,0.210,0.183,south-southeast,2.5,No
2016/04/24,16:40,0.450,0.259,0.469,0.413,0.392,0.212,0.182,south,3.1,No
2016/04/24,16:50,0.448,0.259,0.466,0.414,0.390,0.211,0.183,south,3.1,No
2016/04/24,17:00,0.449,0.260,0.469,0.415,0.392,0.212,0.182,south,3.6,No
2016/04/24,17:10,0.447,0.260,0.467,0.414,0.392,0.209,0.182,south,3.4,No
2016/04/24,17:20,0.450,0.260,0.470,0.416,0.392,0.211,0.182,south,2.3,No
2016/04/24,17:30,0.448,0.258,0.466,0.414,0.392,0.211,0.182,south-southwest,0.8,No
2016/04/24,17:40,0.451,0.261,0.469,0.416,0.390,0.211,0.183,-,CALM,No
2016/04/24,17:50,0.448,0.259,0.467,0.413,0.393,0.211,0.183,south-southwest,2.2,No
2016/04/24,18:00,0.449,0.261,0.468,0.414,0.391,0.212,0.182,south,3.7,No
2016/04/24,18:10,0.449,0.259,0.467,0.414,0.393,0.210,0.182,south-southwest,3.4,No
2016/04/24,18:20,0.449,0.261,0.468,0.417,0.389,0.212,0.183,south-southwest,5.3,No
2016/04/24,18:30,0.452,0.261,0.468,0.413,0.393,0.211,0.182,south-southwest,5.9,No
2016/04/24,18:40,0.448,0.259,0.467,0.415,0.389,0.212,0.182,south-southwest,6.7,No
2016/04/24,18:50,0.451,0.261,0.471,0.413,0.391,0.211,0.182,south-southwest,6.4,No
2016/04/24,19:00,0.447,0.259,0.465,0.414,0.390,0.211,0.181,south-southwest,5.5,No
2016/04/24,19:10,0.452,0.260,0.471,0.415,0.391,0.211,0.182,south-southwest,5.9,No
2016/04/24,19:20,0.449,0.261,0.467,0.414,0.391,0.210,0.183,south-southwest,6.7,No
2016/04/24,19:30,0.450,0.259,0.470,0.417,0.390,0.211,0.183,south-southwest,6.5,No
2016/04/24,19:40,0.449,0.261,0.469,0.414,0.391,0.211,0.182,south-southwest,6.7,No
2016/04/24,19:50,0.449,0.259,0.466,0.415,0.389,0.212,0.183,south-southwest,6.9,No
2016/04/24,20:00,0.452,0.258,0.470,0.415,0.389,0.210,0.184,south-southwest,5.3,No
2016/04/24,20:10,0.448,0.261,0.467,0.414,0.389,0.211,0.183,south-southwest,4.9,No
2016/04/24,20:20,0.450,0.259,0.470,0.417,0.389,0.211,0.183,south-southwest,5.3,No
2016/04/24,20:30,0.451,0.260,0.468,0.413,0.391,0.209,0.184,south-southwest,5.8,No
2016/04/24,20:40,0.450,0.261,0.469,0.416,0.389,0.211,0.184,south-southwest,6.7,No
2016/04/24,20:50,0.451,0.259,0.471,0.415,0.389,0.212,0.183,south-southwest,6.6,No
2016/04/24,21:00,0.448,0.259,0.468,0.414,0.391,0.212,0.184,south-southwest,6.3,No
2016/04/24,21:10,0.452,0.260,0.470,0.416,0.388,0.211,0.183,south,6.1,No
2016/04/24,21:20,0.451,0.261,0.469,0.414,0.391,0.212,0.183,south,6.1,No
2016/04/24,21:30,0.449,0.260,0.469,0.414,0.391,0.212,0.183,south-southwest,6.9,No
2016/04/24,21:40,0.452,0.261,0.469,0.415,0.390,0.211,0.183,south-southwest,6.7,No
2016/04/24,21:50,0.449,0.260,0.468,0.415,0.391,0.212,0.184,south-southwest,6.1,No
2016/04/24,22:00,0.451,0.261,0.468,0.415,0.391,0.212,0.184,south-southwest,5.6,No
2016/04/24,22:10,0.452,0.261,0.469,0.415,0.390,0.213,0.183,south-southwest,5.9,No
2016/04/24,22:20,0.449,0.261,0.466,0.412,0.390,0.212,0.184,south-southwest,5.4,No
2016/04/24,22:30,0.451,0.260,0.471,0.415,0.389,0.212,0.183,south,3.9,No
2016/04/24,22:40,0.450,0.261,0.468,0.415,0.391,0.211,0.184,south,3.1,No
2016/04/24,22:50,0.449,0.261,0.468,0.414,0.389,0.212,0.183,south,3.1,No
2016/04/24,23:00,0.454,0.259,0.469,0.415,0.389,0.212,0.185,south-southwest,2.5,No
2016/04/24,23:10,0.450,0.260,0.469,0.413,0.389,0.211,0.184,south-southwest,2.3,No
2016/04/24,23:20,0.451,0.261,0.470,0.416,0.391,0.211,0.185,south-southwest,2.8,No
2016/04/24,23:30,0.453,0.258,0.470,0.415,0.389,0.212,0.184,south-southwest,1.9,No
2016/04/24,23:40,0.450,0.259,0.467,0.415,0.390,0.210,0.183,south-southwest,2.3,No
2016/04/24,23:50,0.450,0.259,0.471,0.415,0.390,0.211,0.184,south-southwest,2.4,No
